Weather in Mari-Lugovaya

Russia / Mari El Republic     55°56′20″N   48°11′49″E
temp.,
°C
wind,
m/s
gust,
m/s
humid.,
%
clouds,
%
prec.,
mm/h
press.,
hPa
HPBL,
m
11 may, tue
tue1100:00+12n4797100 0.9 1023206
03:00+11n4798100 0.9 1024175
06:00+12nne4894100 0.0 1025231
09:00+18ne457389 0.0 1026535
12:00+23ene345289 0.0 10261168
15:00+24ene3446100 0.0 10261864
18:00+21ene2364100 0.0 102656
21:00+17ene3779100 0.1 1027148
12 may, wed
wed1200:00+14ene379174 0.0 1028122
03:00+13ene239329 0.0 102860
06:00+16ene378414 0.0 1028198
09:00+21e465590 0.0 1028732
12:00+24se4544100 0.0 10271564
15:00+25se46395 0.0 10272439
18:00+22se225778 0.0 102636
21:00+17ese226268 0.0 102711
13 may, thu
thu1300:00+15ese22658 0.0 102711
03:00+14ese227389 0.0 102716
06:00+16ese25715 0.0 1027151
09:00+21se584778 0.0 1026806
12:00+23se683995 0.0 10261438
15:00+24sse474483 0.0 10251554
18:00+17ssw41070100 0.0 1025235
21:00+17ese367071 0.1 1023108
14 may, fri
fri1400:00+16se357291 0.0 102380
03:00+14se338318 0.3 102350
06:00+16se3117646 0.3 1023298
09:00+22sse6104991 0.3 1022690
12:00+24s6843100 0.0 1021991
15:00+24s5952100 0.0 10211361
18:00+22ssw257032 0.0 1020149
21:00+18ssw228399 0.0 102017
15 may, sat
sat1500:00+16sse33799 0.0 102035
03:00+15sse34745 0.0 102053
06:00+17sse39685 0.0 1020229
09:00+22s595097 0.3 1019483
12:00+26s684268 0.0 1019865
15:00+27s5944100 0.0 10181194
18:00
21:00+18s41264100 0.0 1017204